Time,TemperatureF,DewpointF,PressureIn,WindDirection,WindDirectionDegrees,WindSpeedMPH,WindSpeedGustMPH,Humidity,HourlyPrecipIn,Conditions,Clouds,dailyrainin,SoftwareType,DateUTC
2013-03-31 00:01:00,69.6,59.8,29.06,ESE,114,3.6,6.7,71,0.00,,,0.00,LWC V2.10 B1813,2013-03-31 05:01:00,
2013-03-31 00:06:00,69.3,59.4,29.06,SE,140,4.0,5.8,71,0.00,,,0.00,LWC V2.10 B1813,2013-03-31 05:06:00,
2013-03-31 00:11:00,69.3,60.2,29.06,SE,135,6.3,7.6,73,0.00,,,0.00,LWC V2.10 B1813,2013-03-31 05:11:00,
2013-03-31 00:16:00,69.1,60.0,29.06,East,96,3.6,6.3,73,0.00,,,0.00,LWC V2.10 B1813,2013-03-31 05:16:00,
2013-03-31 00:21:00,68.9,59.9,29.06,SE,125,6.3,6.3,73,0.00,,,0.00,LWC V2.10 B1813,2013-03-31 05:21:00,
2013-03-31 00:26:00,68.7,60.1,29.06,SSE,162,7.6,7.6,74,0.00,,,0.00,LWC V2.10 B1813,2013-03-31 05:26:00,
2013-03-31 00:31:00,68.5,59.9,29.06,East,100,2.7,6.3,74,0.00,,,0.00,LWC V2.10 B1813,2013-03-31 05:31:00,
2013-03-31 00:37:00,68.4,60.1,29.06,SE,140,6.7,10.1,75,0.00,,,0.00,LWC V2.10 B1813,2013-03-31 05:37:00,
2013-03-31 00:42:00,68.2,60.3,29.06,SSE,157,3.1,6.3,76,0.00,,,0.00,LWC V2.10 B1813,2013-03-31 05:42:00,
2013-03-31 00:47:00,68.2,60.7,29.06,South,174,3.1,8.3,77,0.00,,,0.00,LWC V2.10 B1813,2013-03-31 05:47:00,
2013-03-31 00:52:00,68.2,60.7,29.06,SSE,156,3.6,6.3,77,0.00,,,0.00,LWC V2.10 B1813,2013-03-31 05:52:00,
2013-03-31 00:57:00,68.0,60.9,29.06,South,177,4.0,10.1,78,0.00,,,0.00,LWC V2.10 B1813,2013-03-31 05:57:00,
2013-03-31 01:02:00,67.8,61.1,29.06,SSE,149,3.6,9.6,79,0.00,,,0.00,LWC V2.10 B1813,2013-03-31 06:02:00,
2013-03-31 01:07:00,67.6,60.9,29.06,SSE,159,3.6,6.3,79,0.00,,,0.00,LWC V2.10 B1813,2013-03-31 06:07:00,
2013-03-31 01:12:00,67.5,60.7,29.06,SE,138,5.4,8.7,79,0.00,,,0.00,LWC V2.10 B1813,2013-03-31 06:12:00,
2013-03-31 01:17:00,67.3,60.9,29.06,South,183,8.1,8.7,80,0.00,,,0.00,LWC V2.10 B1813,2013-03-31 06:17:00,
2013-03-31 01:22:00,67.1,61.1,29.06,SSE,154,6.3,6.3,81,0.00,,,0.00,LWC V2.10 B1813,2013-03-31 06:22:00,
2013-03-31 01:27:00,66.9,60.9,29.06,East,101,5.4,7.6,81,0.00,,,0.00,LWC V2.10 B1813,2013-03-31 06:27:00,
2013-03-31 01:32:00,66.7,60.7,29.06,SE,133,2.7,8.3,81,0.00,,,0.00,LWC V2.10 B1813,2013-03-31 06:32:00,
2013-03-31 01:37:00,66.6,60.9,29.06,SSE,155,3.1,7.6,82,0.00,,,0.00,LWC V2.10 B1813,2013-03-31 06:37:00,
2013-03-31 01:42:00,66.6,60.9,29.06,SSE,164,7.6,8.3,82,0.00,,,0.00,LWC V2.10 B1813,2013-03-31 06:42:00,
2013-03-31 01:47:00,66.4,61.1,29.03,South,181,7.6,12.3,83,0.00,,,0.00,LWC V2.10 B1813,2013-03-31 06:47:00,
2013-03-31 01:52:00,66.4,61.4,29.03,SSE,148,7.2,10.1,84,0.00,,,0.00,LWC V2.10 B1813,2013-03-31 06:52:00,
2013-03-31 01:57:00,66.4,61.7,29.03,South,172,7.2,12.8,85,0.00,,,0.00,LWC V2.10 B1813,2013-03-31 06:57:00,
2013-03-31 02:02:00,66.4,61.7,29.06,SSE,167,5.8,10.1,85,0.00,,,0.00,LWC V2.10 B1813,2013-03-31 07:02:00,
2013-03-31 02:07:00,66.4,61.7,29.06,SE,141,8.1,10.1,85,0.00,,,0.00,LWC V2.10 B1813,2013-03-31 07:07:00,
2013-03-31 02:12:00,66.6,62.2,29.06,SSE,151,5.8,8.3,86,0.00,,,0.00,LWC V2.10 B1813,2013-03-31 07:12:00,
2013-03-31 02:17:00,66.6,62.2,29.06,South,182,6.3,7.6,86,0.00,,,0.00,LWC V2.10 B1813,2013-03-31 07:17:00,
2013-03-31 02:22:00,66.6,62.2,29.06,South,187,4.0,5.8,86,0.00,,,0.00,LWC V2.10 B1813,2013-03-31 07:22:00,
2013-03-31 02:27:00,66.6,62.2,29.06,South,176,4.9,5.4,86,0.00,,,0.00,LWC V2.10 B1813,2013-03-31 07:27:00,
2013-03-31 02:32:00,66.7,62.4,29.03,SE,131,7.2,8.7,86,0.00,,,0.00,LWC V2.10 B1813,2013-03-31 07:32:00,
2013-03-31 02:37:00,66.7,62.4,29.03,South,173,4.0,6.3,86,0.00,,,0.00,LWC V2.10 B1813,2013-03-31 07:37:00,
2013-03-31 02:42:00,66.7,62.4,29.03,SSW,195,3.6,8.7,86,0.00,,,0.00,LWC V2.10 B1813,2013-03-31 07:42:00,
2013-03-31 02:47:00,66.9,62.6,29.03,SSE,152,2.2,7.6,86,0.00,,,0.00,LWC V2.10 B1813,2013-03-31 07:47:00,
2013-03-31 02:52:00,66.7,62.1,29.03,SSE,158,4.0,5.4,85,0.00,,,0.00,LWC V2.10 B1813,2013-03-31 07:52:00,
2013-03-31 02:57:00,66.7,62.1,29.03,South,173,6.7,6.7,85,0.00,,,0.00,LWC V2.10 B1813,2013-03-31 07:57:00,
2013-03-31 03:02:00,66.7,62.4,29.03,SSE,153,8.3,8.3,86,0.00,,,0.00,LWC V2.10 B1813,2013-03-31 08:02:00,
2013-03-31 03:07:00,66.7,62.4,29.03,SSW,195,4.0,8.3,86,0.00,,,0.00,LWC V2.10 B1813,2013-03-31 08:07:00,
2013-03-31 03:12:00,66.7,62.4,29.03,South,190,5.4,8.7,86,0.00,,,0.00,LWC V2.10 B1813,2013-03-31 08:12:00,
2013-03-31 03:17:00,66.7,62.4,29.03,SSE,163,2.7,6.3,86,0.00,,,0.00,LWC V2.10 B1813,2013-03-31 08:17:00,
2013-03-31 03:22:00,66.7,62.4,29.03,South,180,3.1,6.3,86,0.00,,,0.00,LWC V2.10 B1813,2013-03-31 08:22:00,
2013-03-31 03:27:00,66.7,62.4,29.03,SSE,159,5.4,5.4,86,0.00,,,0.00,LWC V2.10 B1813,2013-03-31 08:27:00,
2013-03-31 03:32:00,66.9,62.6,29.03,South,171,7.6,8.1,86,0.00,,,0.00,LWC V2.10 B1813,2013-03-31 08:32:00,
2013-03-31 03:37:00,66.9,62.6,29.03,South,179,2.7,7.6,86,0.00,,,0.00,LWC V2.10 B1813,2013-03-31 08:37:00,
2013-03-31 03:42:00,66.9,62.6,29.03,SE,124,3.6,8.3,86,0.00,,,0.00,LWC V2.10 B1813,2013-03-31 08:42:00,
2013-03-31 03:47:00,66.7,62.4,29.03,SSW,193,4.0,7.2,86,0.00,,,0.00,LWC V2.10 B1813,2013-03-31 08:47:00,
2013-03-31 03:52:00,66.7,62.4,29.03,South,176,4.0,6.3,86,0.00,,,0.00,LWC V2.10 B1813,2013-03-31 08:52:00,
2013-03-31 03:57:00,66.9,62.9,29.03,SE,145,5.4,8.7,87,0.00,,,0.00,LWC V2.10 B1813,2013-03-31 08:57:00,
2013-03-31 04:02:00,66.9,62.9,29.03,SSW,200,6.3,7.6,87,0.00,,,0.00,LWC V2.10 B1813,2013-03-31 09:02:00,
2013-03-31 04:07:00,67.1,63.1,29.03,South,180,6.3,8.3,87,0.00,,,0.00,LWC V2.10 B1813,2013-03-31 09:07:00,
2013-03-31 04:12:00,67.1,63.1,29.03,South,182,6.3,7.2,87,0.00,,,0.00,LWC V2.10 B1813,2013-03-31 09:12:00,
2013-03-31 04:17:00,67.3,63.3,29.03,South,171,5.4,8.7,87,0.00,,,0.00,LWC V2.10 B1813,2013-03-31 09:17:00,
2013-03-31 04:22:00,67.3,63.3,29.03,SW,214,4.0,6.3,87,0.00,,,0.00,LWC V2.10 B1813,2013-03-31 09:22:00,
2013-03-31 04:27:00,67.3,63.3,29.03,SSW,195,8.3,8.3,87,0.00,,,0.00,LWC V2.10 B1813,2013-03-31 09:27:00,
2013-03-31 04:32:00,67.3,63.3,29.03,SSW,206,5.4,5.4,87,0.00,,,0.00,LWC V2.10 B1813,2013-03-31 09:32:00,
2013-03-31 04:37:00,67.3,63.3,29.03,SSW,198,3.1,4.0,87,0.00,,,0.00,LWC V2.10 B1813,2013-03-31 09:37:00,
2013-03-31 04:42:00,67.3,63.3,29.03,SSE,168,4.0,6.3,87,0.00,,,0.00,LWC V2.10 B1813,2013-03-31 09:42:00,
2013-03-31 04:47:00,67.3,63.3,29.00,SW,215,4.9,7.6,87,0.00,,,0.00,LWC V2.10 B1813,2013-03-31 09:47:00,
2013-03-31 04:53:00,67.3,63.3,29.00,SSE,148,4.0,5.8,87,0.00,,,0.00,LWC V2.10 B1813,2013-03-31 09:53:00,
2013-03-31 04:58:00,67.3,63.3,29.00,South,172,5.4,6.3,87,0.00,,,0.00,LWC V2.10 B1813,2013-03-31 09:58:00,
2013-03-31 05:03:00,67.3,63.3,29.00,SSE,165,3.1,8.3,87,0.00,,,0.00,LWC V2.10 B1813,2013-03-31 10:03:00,
2013-03-31 05:08:00,67.3,63.3,29.00,SSE,155,2.7,5.4,87,0.00,,,0.00,LWC V2.10 B1813,2013-03-31 10:08:00,
2013-03-31 05:13:00,67.1,63.1,29.00,SSE,157,5.4,5.8,87,0.00,,,0.00,LWC V2.10 B1813,2013-03-31 10:13:00,
2013-03-31 05:18:00,67.1,63.1,29.00,SE,146,4.9,4.9,87,0.00,,,0.00,LWC V2.10 B1813,2013-03-31 10:18:00,
2013-03-31 05:23:00,67.1,63.1,29.00,South,186,4.9,6.3,87,0.00,,,0.00,LWC V2.10 B1813,2013-03-31 10:23:00,
2013-03-31 05:28:00,67.1,63.1,29.00,South,176,3.1,5.8,87,0.00,,,0.00,LWC V2.10 B1813,2013-03-31 10:28:00,
2013-03-31 05:33:00,67.1,63.1,29.00,SSE,161,5.8,5.8,87,0.00,,,0.00,LWC V2.10 B1813,2013-03-31 10:33:00,
2013-03-31 05:38:00,66.9,62.6,29.00,South,178,0.0,2.2,86,0.00,,,0.00,LWC V2.10 B1813,2013-03-31 10:38:00,
2013-03-31 05:43:00,66.9,62.6,29.00,SSW,202,3.1,4.0,86,0.00,,,0.00,LWC V2.10 B1813,2013-03-31 10:43:00,
2013-03-31 05:48:00,66.7,62.4,29.03,SSE,160,3.6,3.6,86,0.00,,,0.00,LWC V2.10 B1813,2013-03-31 10:48:00,
2013-03-31 05:53:00,66.6,62.6,29.03,SSE,153,5.4,8.1,87,0.00,,,0.00,LWC V2.10 B1813,2013-03-31 10:53:00,
2013-03-31 05:58:00,66.6,62.6,29.03,SSE,150,6.3,6.7,87,0.00,,,0.00,LWC V2.10 B1813,2013-03-31 10:58:00,
2013-03-31 06:03:00,66.6,62.6,29.00,SE,146,6.3,6.3,87,0.00,,,0.00,LWC V2.10 B1813,2013-03-31 11:03:00,
2013-03-31 06:08:00,66.6,62.6,29.00,SSW,202,6.3,6.3,87,0.00,,,0.00,LWC V2.10 B1813,2013-03-31 11:08:00,
2013-03-31 06:13:00,66.6,62.6,29.00,South,174,4.0,6.3,87,0.00,,,0.00,LWC V2.10 B1813,2013-03-31 11:13:00,
2013-03-31 06:18:00,66.6,62.6,29.00,South,176,4.0,6.3,87,0.00,,,0.00,LWC V2.10 B1813,2013-03-31 11:18:00,
2013-03-31 06:23:00,66.6,62.6,29.00,SSE,168,3.1,4.0,87,0.00,,,0.00,LWC V2.10 B1813,2013-03-31 11:23:00,
2013-03-31 06:28:00,66.4,62.4,29.00,South,173,5.4,6.3,87,0.00,,,0.00,LWC V2.10 B1813,2013-03-31 11:28:00,
2013-03-31 06:33:00,66.6,62.6,29.00,SSW,207,5.8,5.8,87,0.00,,,0.00,LWC V2.10 B1813,2013-03-31 11:33:00,
2013-03-31 06:38:00,66.4,62.4,29.00,South,171,0.0,4.0,87,0.00,,,0.00,LWC V2.10 B1813,2013-03-31 11:38:00,
2013-03-31 06:43:00,66.4,62.4,29.00,East,93,3.6,5.4,87,0.00,,,0.00,LWC V2.10 B1813,2013-03-31 11:43:00,
2013-03-31 06:48:00,66.4,62.4,29.03,South,183,2.2,3.1,87,0.00,,,0.00,LWC V2.10 B1813,2013-03-31 11:48:00,
2013-03-31 06:53:00,66.4,62.4,29.03,South,188,3.1,6.7,87,0.00,,,0.00,LWC V2.10 B1813,2013-03-31 11:53:00,
2013-03-31 06:58:00,66.4,62.4,29.03,South,177,4.0,6.3,87,0.00,,,0.00,LWC V2.10 B1813,2013-03-31 11:58:00,
2013-03-31 07:03:00,66.4,62.4,29.03,SE,144,4.0,5.4,87,0.00,,,0.00,LWC V2.10 B1813,2013-03-31 12:03:00,
2013-03-31 07:08:00,66.2,62.2,29.03,ESE,113,4.9,4.9,87,0.00,,,0.00,LWC V2.10 B1813,2013-03-31 12:08:00,
2013-03-31 07:13:00,66.4,62.4,29.03,SSE,154,3.6,4.9,87,0.00,,,0.00,LWC V2.10 B1813,2013-03-31 12:13:00,
2013-03-31 07:18:00,66.2,62.2,29.03,ESE,109,4.0,5.8,87,0.00,,,0.00,LWC V2.10 B1813,2013-03-31 12:18:00,
2013-03-31 07:23:00,66.4,62.4,29.03,SSE,155,3.6,6.3,87,0.00,,,0.00,LWC V2.10 B1813,2013-03-31 12:23:00,
2013-03-31 07:28:00,66.2,62.2,29.03,SSE,160,2.7,5.8,87,0.00,,,0.00,LWC V2.10 B1813,2013-03-31 12:28:00,
2013-03-31 07:33:00,66.4,62.4,29.03,SSE,167,2.2,2.7,87,0.00,,,0.00,LWC V2.10 B1813,2013-03-31 12:33:00,
2013-03-31 07:38:00,66.4,62.4,29.03,ESE,108,7.6,7.6,87,0.00,,,0.00,LWC V2.10 B1813,2013-03-31 12:38:00,
2013-03-31 07:43:00,66.4,62.4,29.03,ESE,117,2.2,4.0,87,0.00,,,0.00,LWC V2.10 B1813,2013-03-31 12:43:00,
2013-03-31 07:48:00,66.4,62.4,29.03,East,88,4.0,4.9,87,0.00,,,0.00,LWC V2.10 B1813,2013-03-31 12:48:00,
2013-03-31 07:53:00,66.4,62.4,29.03,SSE,166,4.0,6.3,87,0.00,,,0.00,LWC V2.10 B1813,2013-03-31 12:53:00,
2013-03-31 07:58:00,66.4,62.4,29.03,SSE,162,2.7,4.0,87,0.00,,,0.00,LWC V2.10 B1813,2013-03-31 12:58:00,
2013-03-31 08:03:00,66.6,62.6,29.06,SSE,164,3.6,3.6,87,0.00,,,0.00,LWC V2.10 B1813,2013-03-31 13:03:00,
2013-03-31 08:08:00,66.4,62.4,29.06,SSW,208,5.8,6.3,87,0.00,,,0.00,LWC V2.10 B1813,2013-03-31 13:08:00,
2013-03-31 08:13:00,66.4,62.4,29.06,SSW,198,3.1,5.4,87,0.00,,,0.00,LWC V2.10 B1813,2013-03-31 13:13:00,
2013-03-31 08:18:00,66.6,62.6,29.06,South,187,4.9,4.9,87,0.00,,,0.00,LWC V2.10 B1813,2013-03-31 13:18:00,
2013-03-31 08:23:00,66.4,62.4,29.06,SSE,161,4.0,6.7,87,0.00,,,0.00,LWC V2.10 B1813,2013-03-31 13:23:00,
2013-03-31 08:28:00,66.6,62.6,29.06,South,185,2.7,4.0,87,0.00,,,0.00,LWC V2.10 B1813,2013-03-31 13:28:00,
2013-03-31 08:33:00,66.7,62.7,29.06,SSE,160,4.0,4.0,87,0.00,,,0.00,LWC V2.10 B1813,2013-03-31 13:33:00,
2013-03-31 08:38:00,66.7,62.7,29.06,South,183,2.2,3.1,87,0.00,,,0.00,LWC V2.10 B1813,2013-03-31 13:38:00,
2013-03-31 08:43:00,66.9,62.9,29.06,SSW,212,3.1,6.3,87,0.00,,,0.00,LWC V2.10 B1813,2013-03-31 13:43:00,
2013-03-31 08:48:00,67.1,62.8,29.06,South,190,3.6,6.3,86,0.00,,,0.00,LWC V2.10 B1813,2013-03-31 13:48:00,
2013-03-31 08:53:00,67.1,62.8,29.06,SE,144,3.6,3.6,86,0.00,,,0.00,LWC V2.10 B1813,2013-03-31 13:53:00,
2013-03-31 08:58:00,67.3,62.9,29.06,South,178,2.7,3.1,86,0.00,,,0.00,LWC V2.10 B1813,2013-03-31 13:58:00,
2013-03-31 09:03:00,67.3,62.9,29.06,South,170,4.9,5.8,86,0.00,,,0.00,LWC V2.10 B1813,2013-03-31 14:03:00,
2013-03-31 09:08:00,67.3,62.6,29.06,SSW,211,2.7,3.6,85,0.00,,,0.00,LWC V2.10 B1813,2013-03-31 14:08:00,
2013-03-31 09:13:00,67.5,62.8,29.06,SSW,194,3.1,4.0,85,0.00,,,0.00,LWC V2.10 B1813,2013-03-31 14:13:00,
2013-03-31 09:19:00,67.5,62.8,29.06,SW,214,2.2,3.6,85,0.00,,,0.00,LWC V2.10 B1813,2013-03-31 14:19:00,
2013-03-31 09:24:00,67.6,63.0,29.06,SW,215,2.7,3.1,85,0.00,,,0.00,LWC V2.10 B1813,2013-03-31 14:24:00,
2013-03-31 09:29:00,67.6,63.0,29.06,SW,215,0.0,0.0,85,0.00,,,0.00,LWC V2.10 B1813,2013-03-31 14:29:00,
2013-03-31 09:34:00,68.0,63.0,29.06,SW,216,0.0,0.0,84,0.00,,,0.00,LWC V2.10 B1813,2013-03-31 14:34:00,
2013-03-31 09:39:00,68.2,62.8,29.06,West,267,0.0,0.0,83,0.00,,,0.00,LWC V2.10 B1813,2013-03-31 14:39:00,
2013-03-31 09:44:00,68.2,62.8,29.06,West,267,0.0,0.0,83,0.00,,,0.00,LWC V2.10 B1813,2013-03-31 14:44:00,
2013-03-31 09:49:00,68.4,62.6,29.06,South,179,2.7,2.7,82,0.00,,,0.00,LWC V2.10 B1813,2013-03-31 14:49:00,
2013-03-31 09:54:00,68.7,63.0,29.06,SSE,156,0.0,4.0,82,0.00,,,0.00,LWC V2.10 B1813,2013-03-31 14:54:00,
2013-03-31 09:59:00,68.7,63.0,29.06,SSW,210,0.0,3.1,82,0.00,,,0.00,LWC V2.10 B1813,2013-03-31 14:59:00,
2013-03-31 10:04:00,68.9,63.2,29.06,SSW,206,2.2,4.0,82,0.00,,,0.00,LWC V2.10 B1813,2013-03-31 15:04:00,
2013-03-31 10:09:00,69.6,63.5,29.06,SSW,198,2.7,5.8,81,0.00,,,0.00,LWC V2.10 B1813,2013-03-31 15:09:00,
2013-03-31 10:14:00,70.0,63.5,29.06,SSW,202,3.1,7.6,80,0.00,,,0.00,LWC V2.10 B1813,2013-03-31 15:14:00,
2013-03-31 10:19:00,70.2,63.3,29.06,WSW,243,8.7,10.5,79,0.00,,,0.00,LWC V2.10 B1813,2013-03-31 15:19:00,
2013-03-31 10:24:00,70.5,63.3,29.06,WSW,241,3.6,8.1,78,0.00,,,0.00,LWC V2.10 B1813,2013-03-31 15:24:00,
2013-03-31 10:29:00,70.9,63.3,29.06,SW,225,4.0,5.4,77,0.00,,,0.00,LWC V2.10 B1813,2013-03-31 15:29:00,
2013-03-31 10:34:00,71.4,63.8,29.06,SSE,160,3.6,4.5,77,0.00,,,0.00,LWC V2.10 B1813,2013-03-31 15:34:00,
2013-03-31 10:39:00,72.0,63.6,29.06,WSW,237,3.1,3.6,75,0.00,,,0.00,LWC V2.10 B1813,2013-03-31 15:39:00,
2013-03-31 10:44:00,72.7,63.5,29.06,SSW,206,3.1,4.9,73,0.00,,,0.00,LWC V2.10 B1813,2013-03-31 15:44:00,
2013-03-31 10:49:00,72.9,62.5,29.06,SSW,194,3.6,4.0,70,0.00,,,0.00,LWC V2.10 B1813,2013-03-31 15:49:00,
2013-03-31 10:54:00,73.6,62.8,29.06,SW,225,4.0,5.4,69,0.00,,,0.00,LWC V2.10 B1813,2013-03-31 15:54:00,
2013-03-31 10:59:00,73.8,62.5,29.06,South,186,2.7,3.6,68,0.00,,,0.00,LWC V2.10 B1813,2013-03-31 15:59:00,
2013-03-31 11:04:00,73.6,61.9,29.06,SSW,207,4.9,6.3,67,0.00,,,0.00,LWC V2.10 B1813,2013-03-31 16:04:00,
2013-03-31 11:09:00,73.8,62.1,29.06,SSW,210,2.7,4.0,67,0.00,,,0.00,LWC V2.10 B1813,2013-03-31 16:09:00,
2013-03-31 11:14:00,74.3,62.6,29.06,SSW,204,4.0,5.8,67,0.00,,,0.00,LWC V2.10 B1813,2013-03-31 16:14:00,
2013-03-31 11:19:00,74.8,62.3,29.06,SSW,204,4.0,5.4,65,0.00,,,0.00,LWC V2.10 B1813,2013-03-31 16:19:00,
2013-03-31 11:24:00,75.0,62.0,29.06,SSE,165,5.4,6.3,64,0.00,,,0.00,LWC V2.10 B1813,2013-03-31 16:24:00,
2013-03-31 11:29:00,74.8,61.8,29.03,SSW,212,4.9,6.3,64,0.00,,,0.00,LWC V2.10 B1813,2013-03-31 16:29:00,
2013-03-31 11:34:00,74.8,61.8,29.03,South,171,3.6,4.5,64,0.00,,,0.00,LWC V2.10 B1813,2013-03-31 16:34:00,
2013-03-31 11:39:00,75.0,61.5,29.03,SSW,193,3.6,5.4,63,0.00,,,0.00,LWC V2.10 B1813,2013-03-31 16:39:00,
2013-03-31 11:44:00,74.8,61.4,29.03,SW,222,4.0,5.8,63,0.00,,,0.00,LWC V2.10 B1813,2013-03-31 16:44:00,
2013-03-31 11:49:00,74.7,61.2,29.06,South,188,0.0,2.7,63,0.00,,,0.00,LWC V2.10 B1813,2013-03-31 16:49:00,
2013-03-31 11:54:00,75.6,62.1,29.06,SW,216,4.0,5.4,63,0.00,,,0.00,LWC V2.10 B1813,2013-03-31 16:54:00,
2013-03-31 11:59:00,75.9,61.9,29.06,SSW,208,2.7,4.0,62,0.00,,,0.00,LWC V2.10 B1813,2013-03-31 16:59:00,
2013-03-31 12:04:00,76.8,62.8,29.06,ESE,102,2.7,3.1,62,0.00,,,0.00,LWC V2.10 B1813,2013-03-31 17:04:00,
2013-03-31 12:09:00,76.8,61.9,29.06,WNW,297,4.5,6.3,60,0.00,,,0.00,LWC V2.10 B1813,2013-03-31 17:09:00,
2013-03-31 12:14:00,76.1,60.7,29.06,WNW,295,5.4,7.6,59,0.00,,,0.00,LWC V2.10 B1813,2013-03-31 17:14:00,
2013-03-31 12:19:00,75.6,59.7,29.06,WSW,251,5.4,8.3,58,0.00,,,0.00,LWC V2.10 B1813,2013-03-31 17:19:00,
2013-03-31 12:24:00,75.4,60.0,29.06,West,272,4.0,7.6,59,0.00,,,0.00,LWC V2.10 B1813,2013-03-31 17:24:00,
2013-03-31 12:29:00,75.4,60.5,29.09,WNW,290,3.1,8.7,60,0.00,,,0.00,LWC V2.10 B1813,2013-03-31 17:29:00,
2013-03-31 12:34:00,75.6,60.7,29.09,NNW,331,7.6,7.6,60,0.00,,,0.00,LWC V2.10 B1813,2013-03-31 17:34:00,
2013-03-31 12:39:00,75.7,60.4,29.09,WNW,283,3.1,6.3,59,0.00,,,0.00,LWC V2.10 B1813,2013-03-31 17:39:00,
2013-03-31 12:44:00,76.1,60.7,29.09,NW,307,2.7,5.4,59,0.00,,,0.00,LWC V2.10 B1813,2013-03-31 17:44:00,
2013-03-31 12:49:00,76.5,61.0,29.09,NNW,339,5.8,5.8,59,0.00,,,0.00,LWC V2.10 B1813,2013-03-31 17:49:00,
2013-03-31 12:54:00,76.5,60.6,29.09,WNW,295,8.1,8.1,58,0.00,,,0.00,LWC V2.10 B1813,2013-03-31 17:54:00,
2013-03-31 12:59:00,76.3,60.9,29.09,NW,312,2.2,4.9,59,0.00,,,0.00,LWC V2.10 B1813,2013-03-31 17:59:00,
2013-03-31 13:04:00,76.5,61.0,29.09,North,0,2.2,5.8,59,0.00,,,0.00,LWC V2.10 B1813,2013-03-31 18:04:00,
2013-03-31 13:09:00,76.6,61.2,29.09,NW,307,2.7,3.1,59,0.00,,,0.00,LWC V2.10 B1813,2013-03-31 18:09:00,
2013-03-31 13:14:00,76.5,60.6,29.09,NW,319,2.7,5.4,58,0.00,,,0.00,LWC V2.10 B1813,2013-03-31 18:14:00,
2013-03-31 13:19:00,76.3,60.9,29.09,North,7,2.7,2.7,59,0.00,,,0.00,LWC V2.10 B1813,2013-03-31 18:19:00,
2013-03-31 13:24:00,76.1,61.2,29.09,NE,43,3.6,3.6,60,0.00,,,0.00,LWC V2.10 B1813,2013-03-31 18:24:00,
2013-03-31 13:29:00,75.7,60.8,29.09,NNW,336,2.7,4.0,60,0.00,,,0.00,LWC V2.10 B1813,2013-03-31 18:29:00,
2013-03-31 13:34:00,75.4,60.5,29.06,North,350,3.1,5.8,60,0.00,,,0.00,LWC V2.10 B1813,2013-03-31 18:34:00,
2013-03-31 13:39:00,75.0,60.6,29.06,NW,307,3.6,3.6,61,0.00,,,0.00,LWC V2.10 B1813,2013-03-31 18:39:00,
2013-03-31 13:44:00,74.7,60.3,29.09,WNW,295,2.7,3.6,61,0.00,,,0.00,LWC V2.10 B1813,2013-03-31 18:44:00,
2013-03-31 13:49:00,73.4,60.5,29.09,West,272,15.4,15.4,64,0.00,,,0.00,LWC V2.10 B1813,2013-03-31 18:49:00,
2013-03-31 13:54:00,67.1,55.4,29.09,NE,47,0.0,8.3,66,2.64,,,0.20,LWC V2.10 B1813,2013-03-31 18:54:00,
2013-03-31 13:59:00,65.5,55.8,29.06,East,92,0.0,2.2,71,2.28,,,0.24,LWC V2.10 B1813,2013-03-31 18:59:00,
2013-03-31 14:04:00,67.1,57.4,29.06,ESE,106,0.0,0.0,71,2.28,,,0.24,LWC V2.10 B1813,2013-03-31 19:04:00,
2013-03-31 14:09:00,68.7,59.7,29.06,ENE,65,0.0,0.0,73,2.28,,,0.24,LWC V2.10 B1813,2013-03-31 19:09:00,
2013-03-31 14:14:00,70.5,61.0,29.06,NNE,27,0.0,0.0,72,2.28,,,0.24,LWC V2.10 B1813,2013-03-31 19:14:00,
2013-03-31 14:19:00,71.6,62.1,29.06,NNE,14,0.0,2.2,72,2.28,,,0.24,LWC V2.10 B1813,2013-03-31 19:19:00,
2013-03-31 14:24:00,71.2,63.3,29.06,ENE,59,0.0,0.0,76,2.28,,,0.24,LWC V2.10 B1813,2013-03-31 19:24:00,
2013-03-31 14:29:00,70.9,63.7,29.06,NNE,16,0.0,0.0,78,2.28,,,0.24,LWC V2.10 B1813,2013-03-31 19:29:00,
2013-03-31 14:34:00,70.7,63.9,29.06,NE,35,0.0,0.0,79,2.28,,,0.24,LWC V2.10 B1813,2013-03-31 19:34:00,
2013-03-31 14:39:00,70.9,64.7,29.06,NNE,18,0.0,0.0,81,2.28,,,0.24,LWC V2.10 B1813,2013-03-31 19:39:00,
2013-03-31 14:44:00,70.7,64.9,29.06,NNE,32,0.0,0.0,82,2.28,,,0.24,LWC V2.10 B1813,2013-03-31 19:44:00,
2013-03-31 14:49:00,70.7,65.3,29.06,ENE,75,0.0,0.0,83,2.28,,,0.24,LWC V2.10 B1813,2013-03-31 19:49:00,
2013-03-31 14:54:00,70.5,65.4,29.06,NNE,33,0.0,0.0,84,2.28,,,0.24,LWC V2.10 B1813,2013-03-31 19:54:00,
2013-03-31 14:59:00,70.5,65.4,29.06,NNE,14,0.0,0.0,84,2.28,,,0.24,LWC V2.10 B1813,2013-03-31 19:59:00,
2013-03-31 15:04:00,70.5,65.8,29.06,North,2,0.0,2.2,85,2.28,,,0.24,LWC V2.10 B1813,2013-03-31 20:04:00,
2013-03-31 15:09:00,70.3,65.6,29.06,North,10,0.0,5.8,85,2.28,,,0.24,LWC V2.10 B1813,2013-03-31 20:09:00,
2013-03-31 15:14:00,70.5,65.8,29.06,NNE,21,0.0,2.7,85,2.28,,,0.24,LWC V2.10 B1813,2013-03-31 20:14:00,
2013-03-31 15:19:00,70.5,65.4,29.03,North,8,0.0,0.0,84,2.28,,,0.24,LWC V2.10 B1813,2013-03-31 20:19:00,
2013-03-31 15:24:00,70.9,66.1,29.03,NE,48,0.0,0.0,85,2.28,,,0.24,LWC V2.10 B1813,2013-03-31 20:24:00,
2013-03-31 15:29:00,70.7,66.0,29.03,ENE,57,0.0,0.0,85,2.28,,,0.24,LWC V2.10 B1813,2013-03-31 20:29:00,
2013-03-31 15:34:00,70.9,65.8,29.03,NNE,21,0.0,2.2,84,2.28,,,0.24,LWC V2.10 B1813,2013-03-31 20:34:00,
2013-03-31 15:39:00,70.9,65.8,29.03,NNE,14,0.0,0.0,84,2.28,,,0.24,LWC V2.10 B1813,2013-03-31 20:39:00,
2013-03-31 15:44:00,70.9,65.8,29.03,NNE,32,0.0,0.0,84,2.28,,,0.24,LWC V2.10 B1813,2013-03-31 20:44:00,
2013-03-31 15:49:00,70.9,65.4,29.03,NE,43,0.0,0.0,83,2.28,,,0.24,LWC V2.10 B1813,2013-03-31 20:49:00,
2013-03-31 15:54:00,70.7,65.3,29.03,NE,43,0.0,0.0,83,2.28,,,0.24,LWC V2.10 B1813,2013-03-31 20:54:00,
2013-03-31 15:59:00,70.5,64.7,29.03,ESE,115,0.0,0.0,82,2.28,,,0.24,LWC V2.10 B1813,2013-03-31 20:59:00,
2013-03-31 16:04:00,70.5,64.7,29.03,ESE,115,0.0,0.0,82,0.00,,,0.24,LWC V2.10 B1813,2013-03-31 21:04:00,
2013-03-31 16:09:00,70.3,64.6,29.03,ESE,110,2.2,2.2,82,0.00,,,0.24,LWC V2.10 B1813,2013-03-31 21:09:00,
2013-03-31 16:14:00,69.8,64.7,29.03,South,171,3.1,5.4,84,0.00,,,0.24,LWC V2.10 B1813,2013-03-31 21:14:00,
2013-03-31 16:19:00,69.4,65.1,29.03,SSE,152,0.0,2.2,86,0.00,,,0.24,LWC V2.10 B1813,2013-03-31 21:19:00,
2013-03-31 16:24:00,69.4,65.1,29.03,SSE,160,2.7,4.9,86,0.00,,,0.24,LWC V2.10 B1813,2013-03-31 21:24:00,
2013-03-31 16:29:00,69.4,65.1,29.03,ESE,115,3.1,3.1,86,0.00,,,0.24,LWC V2.10 B1813,2013-03-31 21:29:00,
2013-03-31 16:34:00,69.3,65.2,29.03,SSE,166,3.1,3.6,87,0.00,,,0.24,LWC V2.10 B1813,2013-03-31 21:34:00,
2013-03-31 16:39:00,69.1,65.0,29.03,SSE,155,3.1,5.4,87,0.00,,,0.24,LWC V2.10 B1813,2013-03-31 21:39:00,
2013-03-31 16:44:00,68.7,64.7,29.00,ESE,114,4.9,6.3,87,0.00,,,0.24,LWC V2.10 B1813,2013-03-31 21:44:00,
2013-03-31 16:49:00,68.9,64.9,29.00,ESE,108,6.3,8.1,87,0.00,,,0.24,LWC V2.10 B1813,2013-03-31 21:49:00,
2013-03-31 16:54:00,68.9,64.9,29.00,SE,131,5.4,5.8,87,0.00,,,0.24,LWC V2.10 B1813,2013-03-31 21:54:00,
2013-03-31 16:59:00,69.4,65.4,29.00,SE,131,3.6,6.3,87,0.00,,,0.24,LWC V2.10 B1813,2013-03-31 21:59:00,
2013-03-31 17:04:00,69.8,65.4,29.00,SSE,160,2.7,6.3,86,0.00,,,0.24,LWC V2.10 B1813,2013-03-31 22:04:00,
2013-03-31 17:09:00,70.5,65.8,29.00,SSE,157,5.4,5.8,85,0.00,,,0.24,LWC V2.10 B1813,2013-03-31 22:09:00,
2013-03-31 17:14:00,71.4,66.0,29.00,East,93,0.0,3.6,83,0.00,,,0.24,LWC V2.10 B1813,2013-03-31 22:14:00,
2013-03-31 17:19:00,71.8,66.0,29.00,ENE,70,0.0,2.7,82,0.00,,,0.24,LWC V2.10 B1813,2013-03-31 22:19:00,
2013-03-31 17:24:00,72.3,66.5,29.00,ENE,69,0.0,0.0,82,0.00,,,0.24,LWC V2.10 B1813,2013-03-31 22:24:00,
2013-03-31 17:29:00,72.9,66.7,29.00,ENE,60,0.0,0.0,81,0.00,,,0.24,LWC V2.10 B1813,2013-03-31 22:29:00,
2013-03-31 17:34:00,73.2,66.7,29.00,ENE,75,0.0,0.0,80,0.00,,,0.24,LWC V2.10 B1813,2013-03-31 22:34:00,
2013-03-31 17:39:00,74.1,66.4,29.00,SE,125,3.6,4.0,77,0.00,,,0.24,LWC V2.10 B1813,2013-03-31 22:39:00,
2013-03-31 17:44:00,74.1,65.7,29.00,ENE,69,0.0,2.7,75,0.00,,,0.24,LWC V2.10 B1813,2013-03-31 22:44:00,
2013-03-31 17:49:00,74.5,65.2,29.00,East,84,0.0,4.9,73,0.00,,,0.24,LWC V2.10 B1813,2013-03-31 22:49:00,
2013-03-31 17:54:00,74.8,64.8,29.00,East,84,0.0,0.0,71,0.00,,,0.24,LWC V2.10 B1813,2013-03-31 22:54:00,
2013-03-31 18:00:00,75.4,64.5,29.00,NE,43,0.0,0.0,69,0.00,,,0.24,LWC V2.10 B1813,2013-03-31 23:00:00,
2013-03-31 18:05:00,75.6,64.7,29.00,NE,50,0.0,0.0,69,0.00,,,0.24,LWC V2.10 B1813,2013-03-31 23:05:00,
2013-03-31 18:10:00,75.7,64.8,29.00,East,96,0.0,0.0,69,0.00,,,0.24,LWC V2.10 B1813,2013-03-31 23:10:00,
2013-03-31 18:15:00,76.1,64.3,28.97,North,1,0.0,0.0,67,0.00,,,0.24,LWC V2.10 B1813,2013-03-31 23:15:00,
2013-03-31 18:20:00,76.3,64.1,28.97,NNE,18,0.0,0.0,66,0.00,,,0.24,LWC V2.10 B1813,2013-03-31 23:20:00,
2013-03-31 18:25:00,76.5,63.8,28.97,NNE,21,0.0,0.0,65,0.00,,,0.24,LWC V2.10 B1813,2013-03-31 23:25:00,
2013-03-31 18:30:00,76.6,64.0,29.00,North,11,0.0,0.0,65,0.00,,,0.24,LWC V2.10 B1813,2013-03-31 23:30:00,
2013-03-31 18:35:00,76.3,63.2,29.00,North,6,0.0,0.0,64,0.00,,,0.24,LWC V2.10 B1813,2013-03-31 23:35:00,
2013-03-31 18:40:00,76.5,63.4,29.00,North,6,0.0,0.0,64,0.00,,,0.24,LWC V2.10 B1813,2013-03-31 23:40:00,
2013-03-31 18:45:00,76.3,63.6,29.00,NE,48,0.0,0.0,65,0.00,,,0.24,LWC V2.10 B1813,2013-03-31 23:45:00,
2013-03-31 18:50:00,76.3,63.6,29.00,NNE,15,0.0,2.2,65,0.00,,,0.24,LWC V2.10 B1813,2013-03-31 23:50:00,
2013-03-31 18:55:00,76.1,63.5,29.00,NNE,27,0.0,0.0,65,0.00,,,0.24,LWC V2.10 B1813,2013-03-31 23:55:00,
2013-03-31 19:00:00,75.7,62.7,29.00,NE,53,0.0,0.0,64,0.00,,,0.24,LWC V2.10 B1813,2013-04-01 00:00:00,
2013-03-31 19:05:00,75.2,62.2,29.00,East,84,0.0,0.0,64,0.00,,,0.24,LWC V2.10 B1813,2013-04-01 00:05:00,
2013-03-31 19:10:00,74.7,62.5,29.00,East,82,0.0,0.0,66,0.00,,,0.24,LWC V2.10 B1813,2013-04-01 00:10:00,
2013-03-31 19:15:00,74.3,62.2,29.00,East,83,0.0,0.0,66,0.00,,,0.24,LWC V2.10 B1813,2013-04-01 00:15:00,
2013-03-31 19:20:00,73.9,61.8,29.00,East,83,0.0,0.0,66,0.00,,,0.24,LWC V2.10 B1813,2013-04-01 00:20:00,
2013-03-31 19:25:00,73.4,61.8,29.00,East,83,0.0,0.0,67,0.00,,,0.24,LWC V2.10 B1813,2013-04-01 00:25:00,
2013-03-31 19:30:00,73.0,61.4,29.00,East,85,0.0,0.0,67,0.00,,,0.24,LWC V2.10 B1813,2013-04-01 00:30:00,
2013-03-31 19:35:00,72.7,61.5,29.00,East,84,0.0,0.0,68,0.00,,,0.24,LWC V2.10 B1813,2013-04-01 00:35:00,
2013-03-31 19:40:00,72.1,61.0,29.00,NE,48,0.0,0.0,68,0.00,,,0.24,LWC V2.10 B1813,2013-04-01 00:40:00,
2013-03-31 19:45:00,72.0,61.2,29.00,ENE,63,0.0,0.0,69,0.00,,,0.24,LWC V2.10 B1813,2013-04-01 00:45:00,
2013-03-31 19:50:00,71.6,60.9,29.00,NE,51,0.0,0.0,69,0.00,,,0.24,LWC V2.10 B1813,2013-04-01 00:50:00,
2013-03-31 19:55:00,71.4,60.7,29.00,NE,43,0.0,0.0,69,0.00,,,0.24,LWC V2.10 B1813,2013-04-01 00:55:00,
2013-03-31 20:00:00,71.1,60.0,29.00,North,10,0.0,0.0,68,0.00,,,0.24,LWC V2.10 B1813,2013-04-01 01:00:00,
2013-03-31 20:05:00,70.7,59.6,29.00,NNE,32,0.0,0.0,68,0.00,,,0.24,LWC V2.10 B1813,2013-04-01 01:05:00,
2013-03-31 20:10:00,70.3,59.7,29.00,NNE,32,0.0,0.0,69,0.00,,,0.24,LWC V2.10 B1813,2013-04-01 01:10:00,
2013-03-31 20:15:00,70.0,59.7,29.00,NNE,20,0.0,0.0,70,0.00,,,0.24,LWC V2.10 B1813,2013-04-01 01:15:00,
2013-03-31 20:20:00,69.8,59.6,29.00,NE,34,0.0,0.0,70,0.00,,,0.24,LWC V2.10 B1813,2013-04-01 01:20:00,
2013-03-31 20:25:00,69.8,59.6,29.00,ENE,66,0.0,0.0,70,0.00,,,0.24,LWC V2.10 B1813,2013-04-01 01:25:00,
2013-03-31 20:30:00,69.6,59.8,29.00,NNE,17,0.0,0.0,71,0.00,,,0.24,LWC V2.10 B1813,2013-04-01 01:30:00,
2013-03-31 20:35:00,69.4,59.6,29.00,NNE,20,0.0,0.0,71,0.00,,,0.24,LWC V2.10 B1813,2013-04-01 01:35:00,
2013-03-31 20:40:00,69.6,59.8,29.00,NE,43,0.0,0.0,71,0.00,,,0.24,LWC V2.10 B1813,2013-04-01 01:40:00,
2013-03-31 20:45:00,69.3,59.4,29.00,NE,42,0.0,2.2,71,0.00,,,0.24,LWC V2.10 B1813,2013-04-01 01:45:00,
2013-03-31 20:50:00,69.3,59.4,29.00,North,11,0.0,2.2,71,0.00,,,0.24,LWC V2.10 B1813,2013-04-01 01:50:00,
2013-03-31 20:55:00,69.1,59.7,29.00,NNE,26,0.0,0.0,72,0.00,,,0.24,LWC V2.10 B1813,2013-04-01 01:55:00,
2013-03-31 21:00:00,68.9,59.5,29.03,NNE,15,0.0,0.0,72,0.00,,,0.24,LWC V2.10 B1813,2013-04-01 02:00:00,
2013-03-31 21:05:00,68.9,59.5,29.03,North,3,0.0,0.0,72,0.00,,,0.24,LWC V2.10 B1813,2013-04-01 02:05:00,
2013-03-31 21:10:00,69.1,59.7,29.03,NNE,21,0.0,2.2,72,0.00,,,0.24,LWC V2.10 B1813,2013-04-01 02:10:00,
2013-03-31 21:15:00,68.9,59.5,29.03,North,357,0.0,0.0,72,0.00,,,0.24,LWC V2.10 B1813,2013-04-01 02:15:00,
2013-03-31 21:20:00,68.9,59.9,29.03,NNE,19,0.0,0.0,73,0.00,,,0.24,LWC V2.10 B1813,2013-04-01 02:20:00,
2013-03-31 21:25:00,68.9,59.9,29.03,North,10,0.0,2.7,73,0.00,,,0.24,LWC V2.10 B1813,2013-04-01 02:25:00,
2013-03-31 21:30:00,69.1,60.0,29.03,North,11,0.0,0.0,73,0.00,,,0.24,LWC V2.10 B1813,2013-04-01 02:30:00,
2013-03-31 21:35:00,68.9,59.9,29.03,NNE,15,0.0,0.0,73,0.00,,,0.24,LWC V2.10 B1813,2013-04-01 02:35:00,
2013-03-31 21:40:00,68.7,59.7,29.03,NNE,14,0.0,0.0,73,0.00,,,0.24,LWC V2.10 B1813,2013-04-01 02:40:00,
2013-03-31 21:45:00,68.7,60.1,29.06,North,9,0.0,0.0,74,0.00,,,0.24,LWC V2.10 B1813,2013-04-01 02:45:00,
2013-03-31 21:50:00,68.7,60.1,29.06,North,8,0.0,0.0,74,0.00,,,0.24,LWC V2.10 B1813,2013-04-01 02:50:00,
2013-03-31 21:55:00,68.5,59.9,29.06,North,3,0.0,2.2,74,0.00,,,0.24,LWC V2.10 B1813,2013-04-01 02:55:00,
2013-03-31 22:00:00,68.5,60.3,29.06,NNE,15,0.0,2.7,75,0.00,,,0.24,LWC V2.10 B1813,2013-04-01 03:00:00,
2013-03-31 22:05:00,68.4,60.1,29.06,North,357,0.0,0.0,75,0.00,,,0.24,LWC V2.10 B1813,2013-04-01 03:05:00,
2013-03-31 22:10:00,68.2,60.3,29.06,NNE,15,0.0,0.0,76,0.00,,,0.24,LWC V2.10 B1813,2013-04-01 03:10:00,
2013-03-31 22:15:00,67.8,60.3,29.06,NNE,20,0.0,0.0,77,0.00,,,0.24,LWC V2.10 B1813,2013-04-01 03:15:00,
2013-03-31 22:20:00,67.6,60.2,29.06,ENE,59,0.0,2.7,77,0.00,,,0.24,LWC V2.10 B1813,2013-04-01 03:20:00,
2013-03-31 22:25:00,67.8,60.3,29.06,ESE,111,2.2,2.7,77,0.00,,,0.24,LWC V2.10 B1813,2013-04-01 03:25:00,
2013-03-31 22:30:00,67.8,60.3,29.06,North,357,0.0,4.9,77,0.00,,,0.24,LWC V2.10 B1813,2013-04-01 03:30:00,
2013-03-31 22:35:00,67.8,60.0,29.06,East,97,0.0,3.1,76,0.00,,,0.24,LWC V2.10 B1813,2013-04-01 03:35:00,
2013-03-31 22:40:00,67.8,60.0,29.06,NE,44,4.0,5.4,76,0.00,,,0.24,LWC V2.10 B1813,2013-04-01 03:40:00,
2013-03-31 22:45:00,67.8,59.6,29.09,NNE,13,3.1,3.6,75,0.00,,,0.24,LWC V2.10 B1813,2013-04-01 03:45:00,
2013-03-31 22:50:00,67.6,59.4,29.09,ESE,102,4.0,4.0,75,0.00,,,0.24,LWC V2.10 B1813,2013-04-01 03:50:00,
2013-03-31 22:55:00,67.5,59.2,29.09,ESE,107,0.0,2.2,75,0.00,,,0.24,LWC V2.10 B1813,2013-04-01 03:55:00,
2013-03-31 23:00:00,67.3,59.1,29.09,East,89,0.0,2.2,75,0.00,,,0.24,LWC V2.10 B1813,2013-04-01 04:00:00,
2013-03-31 23:01:00,67.3,59.1,29.09,NE,50,0.0,6.3,75,0.00,,,0.24,LWC V2.10 B1813,2013-04-01 04:01:00,
2013-03-31 23:06:00,67.5,59.2,29.09,ENE,59,2.2,4.9,75,0.00,,,0.24,LWC V2.10 B1813,2013-04-01 04:06:00,
2013-03-31 23:11:00,67.3,59.1,29.09,East,85,3.1,9.6,75,0.00,,,0.24,LWC V2.10 B1813,2013-04-01 04:11:00,
2013-03-31 23:16:00,67.1,58.9,29.09,East,96,3.1,3.6,75,0.00,,,0.24,LWC V2.10 B1813,2013-04-01 04:16:00,
2013-03-31 23:21:00,66.9,59.1,29.09,ESE,110,0.0,6.3,76,0.00,,,0.24,LWC V2.10 B1813,2013-04-01 04:21:00,
2013-03-31 23:26:00,66.7,58.9,29.09,ENE,74,0.0,4.9,76,0.00,,,0.24,LWC V2.10 B1813,2013-04-01 04:26:00,
2013-03-31 23:31:00,66.7,58.9,29.09,NNE,20,3.6,5.8,76,0.00,,,0.24,LWC V2.10 B1813,2013-04-01 04:31:00,
2013-03-31 23:36:00,66.6,58.8,29.09,ENE,68,3.6,3.6,76,0.00,,,0.24,LWC V2.10 B1813,2013-04-01 04:36:00,
2013-03-31 23:41:00,66.6,58.8,29.09,ESE,106,4.9,5.8,76,0.00,,,0.24,LWC V2.10 B1813,2013-04-01 04:41:00,
2013-03-31 23:46:00,66.6,58.8,29.09,East,99,0.0,2.7,76,0.00,,,0.24,LWC V2.10 B1813,2013-04-01 04:46:00,
2013-03-31 23:51:00,66.4,58.6,29.09,East,90,0.0,4.0,76,0.00,,,0.24,LWC V2.10 B1813,2013-04-01 04:51:00,
2013-03-31 23:56:00,66.4,58.6,29.09,NE,44,3.1,3.1,76,0.00,,,0.24,LWC V2.10 B1813,2013-04-01 04:56:00,